{"data":{"norad_id":24876,"intl_designator":"1997-035A","name":"NAVSTAR 43 (USA 132)","alt_names":[],"object_type":"PAYLOAD","status":"ACTIVE","operator":null,"country":"US","launch_date":"1997-07-23","launch_site_code":"AFETR","launch_vehicle":null,"mission":null,"orbit_class":"UNKNOWN","rcs_meters":3.1622,"size_class":null,"mass_kg":null,"dimensions":null,"purposes":[],"wikipedia_slug":null,"has_3d_model":false,"image_url":null,"decayed_at":null,"tle_current":{"epoch":"2026-05-24T06:28:24.673728Z","epoch_age_seconds":141672,"freshness":"FRESH","line1":"1 24876U 97035A   26144.26973002  .00000023  00000+0  00000+0 0  9990","line2":"2 24876  55.9830  99.5100 0101278  56.5032 304.4311  2.00563823211473","mean_motion":2.00563823,"eccentricity":0.0101278,"inclination_deg":55.983,"raan_deg":99.51,"arg_perigee_deg":56.5032,"mean_anomaly_deg":304.4311,"bstar":0,"rev_number":21147,"period_min":717.97594324875,"perigee_km":19913.193788186,"apogee_km":20451.189177806,"semimajor_km":26560.328482996,"source":"CELESTRAK","updated_at":"2026-05-25T13:37:54.965762Z"}}}